Regional Weather Roundup
Issued by NWS

Home | Current Version | Previous Version | Graphics & Text | Print | Product List | Glossary On
Versions: 1 2 3 4 5 6 7 8 9 10 11 12 13 14 15 16 17 18 19 20 21 22 23 24 25 26 27 28 29 30 31 32 33 34 35 36 37 38 39 40 41 42 43 44 45 46 47 48 49 50
000
ASUS45 KCYS 290810
RWRWY

WYOMING REGIONAL WEATHER ROUNDUP
NATIONAL WEATHER SERVICE CHEYENNE WY
200 AM MDT SUN MAR 29 2015

NOTE:  "FAIR" INDICATES FEW OR NO CLOUDS BELOW 12,000 FEET
WITH NO SIGNIFICANT WEATHER AND/OR OBSTRUCTIONS TO VISIBILITY.

WYZ001-290900-
YELLOWSTONE NATIONAL PARK

CITY           SKY/WX    TMP DP  RH WIND       PRES   REMARKS
LK YELLOWSTONE   N/A     24  14  65 NW5       30.31S WCI  18
W YELLOWSTONE  NOT AVBL

$$
WYZ002>013-054>058-071-098>099-290900-
NORTHERN WYOMING

CITY           SKY/WX    TMP DP  RH WIND       PRES   REMARKS
JACKSON        FAIR      37  14  38 CALM      30.30R
CODY           FAIR      43  12  28 NW5       30.21R
GREYBULL       CLOUDY    50  21  32 N13       30.18R
WORLAND        FAIR      45  17  32 NW9       30.19R
SHERIDAN       CLOUDY    46  28  49 NW14      30.18R
BUFFALO        FAIR      42  27  55 NW35G46   30.11R
GILLETTE       FAIR      42  32  67 NW25G37   30.10R
HULETT         DRIZZLE   41  34  75 NW22G37   30.04R
NEWCASTLE      FAIR      45  21  39 NW37G48   30.03R

$$
WYZ014>020-022>026-101>103-290900-
CENTRAL WYOMING

CITY           SKY/WX    TMP DP  RH WIND       PRES   REMARKS
BIG PINEY      FAIR      30  18  60 N9        30.29R WCI  22
PINEDALE       FAIR      32  23  69 NW13      30.28F WCI  22
DUBOIS         FAIR      34  12  40 W18G24    30.25F WCI  23
LANDER         FAIR      46  17  31 NW18G29   30.20R
RIVERTON       FAIR      41  15  35 E6        30.22R
CASPER         FAIR      43  11  27 NW13      30.14R
DOUGLAS        MOCLDY    42  17  36 W7        30.13R

$$
WYZ021-027>030-104>119-290900-
SOUTHERN WYOMING

CITY           SKY/WX    TMP DP  RH WIND       PRES   REMARKS
EVANSTON       FAIR      39  15  37 N9        30.31S WCI  33
KEMMERER       FAIR      32  19  59 NW5       30.31S WCI  27
FORT BRIDGER   FAIR      37  20  51 W9        30.32S WCI  30
ROCK SPRINGS   FAIR      38  17  42 W16       30.23F WCI  29
DIXON          FAIR      41  17  38 N10       30.25R
RAWLINS        FAIR      41  18  39 NW10      30.21R
SARATOGA       FAIR      37  21  52 W6        30.22R WCI  33
LARAMIE        FAIR      43  19  38 W21       30.14R
CHEYENNE       FAIR      45  22  40 N17G28    30.09R
TORRINGTON     FAIR      49  13  23 NW12      30.05R
PINE BLUFFS    FAIR      43  30  61 N10       30.08R

$$



USA.gov is the U.S. government's official web portal to all federal, state and local government web resources and services.